Regional Weather Roundup
Issued by NWS

Home | Current Version | Previous Version | Graphics & Text | Print | Product List | Glossary On
Versions: 1 2 3 4 5 6 7 8 9 10 11 12 13 14 15 16 17 18 19 20 21 22 23 24 25 26 27 28 29 30 31 32 33 34 35 36 37 38 39 40 41 42 43 44 45 46 47 48 49 50
227
ASUS44 KLIX 200801
RWRLA
LOUISIANA WEATHER ROUNDUP
NATIONAL WEATHER SERVICE NEW ORLEANS LA
300 AM CDT SUN APR 20 2014

NOTE: "FAIR" INDICATES FEW OR NO CLOUDS BELOW 12,000 FEET WITH NO
      SIGNIFICANT WEATHER AND/OR OBSTRUCTIONS TO VISIBILITY.
      SKY/WX - SKY CONDITION AND SIGNIFICANT WEATHER.
      TMP - AIR TEMPERATURE.    DP   - DEWPOINT TEMPERATURE.
      RH  - RELATIVE HUMIDITY.  PRES - PRESSURE.
      HX  - HEAT INDEX.         WCI  - WIND CHILL INDEX.

*  THESE STATIONS ARE NOT NWS OR FAA STATIONS AND ARE NOT UNDER
   NWS QUALITY CONTROL.

LAZ040-048-061>063-065-066-069-200900-
SOUTHEAST LOUISIANA

CITY           SKY/WX    TMP DP  RH WIND       PRES   REMARKS
N.O. AUDUBON     N/A     61  56  82 MISG        N/A
N.O. INTL ARPT CLEAR     61  57  87 W3        30.11S
N.O. LAKEFRONT CLEAR     65  59  81 N7        30.11S
N.O. DOWNTOWN* FAIR      66  54  63 CALM      30.11R
SLIDELL        CLEAR     54  51  90 CALM      30.10R
BATON ROUGE    CLEAR     57  52  83 CALM      30.13R
BOOTHVILLE     CLEAR     62  60  93 NW3       30.09F
BELLE CHASSE   CLEAR     56  53  90 CALM      30.10S
BOGALUSA*        N/A     53  50  89 CALM      30.12S
GALLIANO*      NOT AVBL
NEW ROADS*     NOT AVBL
GONZALES*      NOT AVBL
HAMMOND*       NOT AVBL
HOUMA*         FOG       58  56  93 CALM      30.12R VSB 3/4
PORT FOURCHON* SUNNY     66  63  88 W6        30.13R

$$

LAZ041-044-053-054-200900-
SOUTHWEST LOUISIANA

CITY           SKY/WX    TMP DP  RH WIND       PRES   REMARKS
LAKE CHARLES   MOCLDY    57  56  96 CALM      30.15S FOG
LAFAYETTE      CLEAR     59  54  83 CALM      30.14R
PATTERSON      CLEAR     57  55  94 CALM      30.16R
SALT POINT       N/A     68  64  87 CALM      30.12R
NEW IBERIA     CLEAR     58  55  90 CALM      30.14R
CHENAULT AIRPK NOT AVBL

$$

LAZ027-028-200900-
CENTRAL LOUISIANA

CITY           SKY/WX    TMP DP  RH WIND       PRES   REMARKS
FORT POLK      PTCLDY    56  54  93 CALM      30.15S
ALEXANDRIA INT CLEAR     58  55  90 SW3       30.13S
ALEXANDRIA     CLEAR     53  51  93 CALM      30.14S

$$

LAZ001-002-200900-
NORTHWEST LOUISIANA

CITY           SKY/WX    TMP DP  RH WIND       PRES   REMARKS
SHREVEPORT     MOCLDY    58  54  86 CALM      30.13F
BARKSDALE AFB  NOT AVBL
DTN SHREVEPORT PTCLDY    58  54  86 CALM      30.13F

$$

LAZ014-016-200900-
NORTHEAST LOUISIANA

CITY           SKY/WX    TMP DP  RH WIND       PRES   REMARKS
MONROE         PTCLDY    56  55  97 CALM      30.15S FOG
TALLULAH       PTCLDY    58  57  97 CALM      30.13S

$$




USA.gov is the U.S. government's official web portal to all federal, state and local government web resources and services.